Powrót do katalogu

CZ-6A DEB

AktywnySSO
NORAD 54491·DEBRIS·🇨🇳 China

Wystrzelony Nov 11, 2022 z Taiyuan Satellite Launch Center

Loading…

Następne Przeloty (najbliższe 24 godziny)

TLE

ŚwieżeSource: Space-Track

Epoka: Sep 13, 2026, 22:54 UTC

1 54491U 22151HT  26256.95425198  .00000319  00000-0  20219-3 0  9998
2 54491  98.9133 264.0584 0108999  45.6559 315.3479 14.07863669196612

Śledź CZ-6A DEB w czasie rzeczywistym z AllMySat

Download on the App Store